User: anonymous
Location: Caltech
(34.1382°N, 118.1253°W)
Time: 17:38:37
(UTC-07:00)
Language:

ADEOS II - Orbit

View from above orbital plane
View from above orbital plane
View from above satellite
View from above satellite

Ground track
Ground track

The orbit data is extracted from the following two-line orbital elements,

1 27597U 02056A   14205.10522869  .00000059  00000-0  41005-4 0  3529
2 27597 098.2748 211.0380 0001406 144.0191 258.0006 14.26829598604360
Epoch (UTC): 24 July 2014 02:31:31
Eccentricity: 0.0001406
inclination: 98.2748°
perigee height: 801 km
apogee height: 803 km
right ascension of ascending node: 211.0380°
argument of perigee: 144.0191°
revolutions per day: 14.26829598
mean anomaly at epoch: 258.0006°
orbit number at epoch: 60436

The dashed part of the orbit path shows where the satellite is in the earth's shadow,  

DLR